HULIANWANG DIGUI-22

导读

HULIANWANG DIGUI-22是中国于北京时间2025年4月28日发射的低轨卫星,归属“HU LIAN WANG DIGUI”卫星星座系统。这类低轨星座通常依托大量卫星组网,旨在构建全球覆盖的卫星互联网络,可为全球各类终端用户提供无缝宽带接入服务,支撑天地一体化信息网络建设,服务全球通信、应急等领域应用需求。

Basic Information
目录编号:
63689
目录名称:
HULIANWANG DIGUI-22
国际标识:
2025-086C
轨道中心:
EARTH
卫星名称:
HULIANWANG DIGUI-22
卫星全名:
HULIANWANG DIGUI-22
卫星状态:
在轨 (已飞行501 天)
发射日期:
2025-04-28 UTC
国别 :
中国 (CN)
星等 :
--
This satellite is enrolled in the Space Conjunction Data Service (SCDS) and the current flight risk assessment level is: No High Risk
Orbit Information
数据来源 国际轨道数据 AOE轨道数据
星历时间 2026-09-11T15:34:57+0800
5小时前
查看轨道信息
2026-09-11T00:00:00+0800
21小时前
查看轨道信息
半长轴 7546.046km 7546.051km
偏心率 0.0001988 0.0001812
轨道倾角 86.499° 86.498°
近地点辐角 82.272° 76.215°
升交点赤经 284.040° 284.258°
平近点角 277.864° 70.041°
近地点 1166.408km 1166.546km
远地点 1169.41km 1169.282km
周期 108.727分钟 108.727分钟
每日圈数 13.244135 13.244124
Detailed Information
使用方式:
暂无
2D Orbit Map
3D Orbit Map
Orbit Altitude Analysis Chart
Orbit Inclination Analysis Chart
Orbit Comprehensive Analysis Chart
View Comprehensive Chart
Conjunction Data List
Event ID Objects TCA Miss Dist (km) Collision Risk Probability Collision Risk Index (CRI) Action
CDM_260907-023403-186106-368923
2026-09-07T
02:34:43+0000
2.005 km
极远距离
2.718992E-6 低风险 0.44
CDM_260912-055204-532606-368924
2026-09-12T
05:52:35+0000
2.097 km
极远距离
2.428637E-6 低风险 0.43
Miss Distance Evolution Trend with All Objects
Collision Probability Evolution Trend with All Objects